Home   Weather   Fushun   Past weeks
Flag for China

Past Weather in Fushun, Liaoning, China — Yesterday and Last 2 Weeks

Now
32 °F

Clear.


Feels Like: 25 °F
Forecast: 48 / 31 °F
Wind: 8 mph from Northeast

Location: Shenyang / Taoxian

Current Time: Mar 27, 2019 at 3:19:24 am

Latest Report: Mar 27, 2019 at 2:30 am


Visibility: 5 mi

Pressure: 29.86 "Hg

Humidity: 51%

Dew Point: 16 °F

Location of FushunLocation

Past Weather in Fushun — Graph

°F

Fushun Temperature Yesterday

Maximum temperature yesterday: 52 °F (at 2:30 pm)
Minimum temperature yesterday: 28 °F (at 6:00 am)
Average temperature yesterday: 42 °F

High & Low Weather Summary for the Past Weeks

 TemperatureHumidityPressure
High68 °F (Mar 19, 1:00 pm)100% (Mar 21, 4:30 am)30.24 "Hg (Mar 21, 4:30 am)
Low18 °F (Mar 13, 6:30 am)6% (Mar 13, 4:30 pm)29.71 "Hg (Mar 19, 1:30 pm)
Average40 °F41%29.98 "Hg
* Reported Mar 12 2:00 am — Mar 27 2:00 am, Fushun. Weather by CustomWeather, © 2019

Note: Actual official high and low records may vary slightly from our data, if they occured in-between our weather recording intervals... More about our weather records

Advertising

Fushun Weather History for the Previous 24 Hours

Scroll right to see more
 ConditionsComfort  
Time TempWeatherWind HumidityBarometerVisibility
2:00 am
Wed, Mar 27
32 °FClear.8 mph51%29.89 "Hg5 mi
1:30 am32 °FClear.10 mph51%29.89 "Hg5 mi
1:00 am34 °FClear.10 mph44%29.89 "Hg4 mi
12:30 am34 °FClear.8 mph44%29.89 "Hg4 mi
12:00 am34 °FClear.8 mph44%29.92 "Hg4 mi
11:30 pm
Tue, Mar 26
34 °FClear.8 mph41%29.92 "Hg4 mi
11:00 pm36 °FClear.8 mph38%29.92 "Hg4 mi
10:30 pm39 °FClear.1 mph30%29.92 "Hg10 mi
10:00 pm37 °FClear.8 mph33%29.95 "Hg10 mi
9:30 pm37 °FClear.6 mph33%29.95 "Hg10 mi
9:00 pm39 °FClear.6 mph28%29.95 "Hg10 mi
8:00 pm41 °FClear.3 mph26%29.95 "Hg10 mi
7:30 pm45 °FClear.6 mph21%29.95 "Hg10 mi
7:00 pm45 °FClear.3 mph19%29.95 "Hg10 mi
6:30 pm48 °FClear.6 mph17%29.95 "Hg10 mi
6:00 pm48 °FSunny.6 mph17%29.95 "Hg10 mi
5:30 pm50 °FSunny.8 mph14%29.95 "Hg10 mi
5:00 pm52 °FSunny.6 mph13%29.95 "Hg10 mi
4:30 pm52 °FSunny.6 mph13%29.95 "Hg10 mi
4:00 pm52 °FPassing clouds.3 mph12%29.95 "HgN/A
3:30 pm52 °FPassing clouds.6 mph12%29.98 "HgN/A
3:00 pm52 °FPassing clouds.6 mph11%29.98 "HgN/A
2:30 pm52 °FPassing clouds.6 mph11%29.98 "HgN/A
2:00 pm50 °FPassing clouds.6 mph13%30.01 "HgN/A
1:30 pm50 °FPassing clouds.6 mph11%30.01 "HgN/A
1:00 pm48 °FPassing clouds.6 mph8%30.04 "HgN/A
12:30 pm48 °FPassing clouds.8 mph8%30.07 "HgN/A
12:00 pm46 °FSunny.6 mph8%30.07 "Hg10 mi
11:30 am46 °FPassing clouds.3 mph7%30.09 "HgN/A
11:00 am45 °FPassing clouds.3 mph7%30.09 "HgN/A
10:30 am45 °FPassing clouds.3 mph7%30.12 "HgN/A
10:00 am43 °FPassing clouds.6 mph8%30.12 "HgN/A
9:30 am41 °FSunny.8 mph9%30.12 "Hg10 mi
9:00 am41 °FPassing clouds.3 mph8%30.12 "HgN/A
8:30 am41 °FPassing clouds.3 mph9%30.12 "HgN/A
8:00 am39 °FSunny.6 mph10%30.12 "Hg10 mi
7:30 am37 °FPassing clouds.3 mph11%30.12 "HgN/A
7:00 am37 °FSunny.3 mph15%30.12 "Hg10 mi
6:30 am30 °FSunny.1 mph37%30.12 "Hg10 mi
6:00 am28 °FSunny.3 mph29%30.09 "Hg10 mi
5:30 am32 °FClear.3 mph19%30.09 "Hg10 mi
5:00 am34 °FClear.3 mph16%30.09 "Hg10 mi
4:30 am34 °FClear.3 mph15%30.09 "Hg10 mi
4:00 am32 °FClear.3 mph21%30.07 "Hg10 mi
3:30 am32 °FClear.6 mph25%30.07 "Hg10 mi
3:00 am36 °FClear.6 mph15%30.07 "Hg10 mi
Weather by CustomWeather, © 2019

See weather overview